Location: Unspecified
(0.0000°N, 0.0000°E)
Time: 14:49:05
(UTC+00:00)

Envisat - Pass Details

Date: 22 November 2020
Orbit: 764 x 766 km, 98.1° (Epoch: 28 November)

Event Time Altitude Azimuth Distance (km) Brightness Sun altitude
Rises 04:27:10 0° 47° (NE) 3,216 6.6 -18.5°
Reaches altitude 10° 04:30:35 10° 71° (ENE) 2,294 6.2 -17.7°
Maximum altitude 04:33:10 14° 103° (ESE) 2,021 6.3 -17.1°
Drops below altitude 10° 04:35:46 10° 134° (SE) 2,299 6.5 -16.5°
Sets 04:39:11 0° 158° (SSE) 3,229 6.9 -15.7°
